Ottumwa, IA

1:38 AM CST on February 22, 2017 (GMT -0600)
Ottumwa Industrial

Weather History for KOTM - June, 2014

Change the Weather History Date:

Wednesday, June 18, 2014

  Actual Average Record
Temperature  
Mean Temperature 81 °F 72 °F  
Max Temperature 89 °F 82 °F 101 °F (1953)
Min Temperature 72 °F 62 °F 47 °F (1920)
Degree Days  
Heating Degree Days 0 0  
Month to date heating degree days 9 19  
Since 1 June heating degree days 9 19  
Since 1 July heating degree days 7106 6315  
Cooling Degree Days 16 7  
Month to date cooling degree days 95 96  
Year to date cooling degree days 206 160  
Since 1 June cooling degree days 95 96  
Growing Degree Days 30 (Base 50)    
Moisture  
Dew Point 72 °F    
Average Humidity 75    
Maximum Humidity 87    
Minimum Humidity 63    
Precipitation  
Precipitation 0.00 in 0.17 in 4.29 in (1946)
Month to date precipitation 3.21 3.07  
Year to date precipitation 14.05 15.60  
Sea Level Pressure  
Sea Level Pressure 29.85 in    
Wind  
Wind Speed 12 mph (SSE)    
Max Wind Speed 20 mph    
Max Gust Speed 26 mph    
Visibility 10 miles    
Events      
T = Trace of Precipitation, MM = Missing Value Source: NWS Daily Summary

Daily Weather History Graph

Daily Weather History Graph

Search for Another Location

Airport or City:

Trip Planner

Search our weather history database for the weather conditions in past years. The results will help you decide how hot, cold, wet, or windy it might be!

Date:

Astronomy

Jun. 18, 2014 Rise Set
Actual Time 5:36 AM CDT 8:45 PM CDT
Civil Twilight 5:03 AM CDT 9:18 PM CDT
Nautical Twilight 4:20 AM CDT 10:02 PM CDT
Astronomical Twilight 3:28 AM CDT 10:53 PM CDT
Moon 12:11 AM CDT (6/18) 12:03 PM CDT (6/18)
Length of Visible Light 16h 15m
Length of Day
15h 08m
Waning Gibbous, 62% of the Moon is Illuminated
Jun 18
Waning Gibbous
Jun 19
Last Quarter
Jun 27
New
Jul 5
First Quarter
Jul 12
Full

Hourly Weather History & Observations

Time (CDT) Temp. Heat Index Dew Point Humidity Pressure Visibility Wind Dir Wind Speed Gust Speed Precip Events Conditions
12:53 AM 79.0 °F - 71.1 °F 77% 29.81 in 10.0 mi South 12.7 mph - N/A   Overcast
1:53 AM 78.1 °F - 71.1 °F 79% 29.82 in 10.0 mi South 9.2 mph - N/A   Overcast
2:53 AM 77.0 °F - 70.0 °F 79% 29.83 in 10.0 mi South 10.4 mph - N/A   Overcast
3:53 AM 75.9 °F - 70.0 °F 82% 29.82 in 10.0 mi South 11.5 mph - N/A   Overcast
4:53 AM 75.0 °F - 70.0 °F 84% 29.83 in 10.0 mi South 12.7 mph - N/A   Scattered Clouds
5:53 AM 75.0 °F - 70.0 °F 84% 29.82 in 10.0 mi South 15.0 mph - N/A   Clear
6:53 AM 75.9 °F - 70.0 °F 82% 29.83 in 10.0 mi South 17.3 mph 25.3 mph N/A   Clear
7:53 AM 77.0 °F - 70.0 °F 79% 29.84 in 10.0 mi SSW 15.0 mph - N/A   Clear
8:53 AM 78.1 °F - 71.1 °F 79% 29.83 in 10.0 mi SSW 19.6 mph - N/A   Mostly Cloudy
9:27 AM 77.0 °F - 71.1 °F 82% 29.90 in 10.0 mi NNW 6.9 mph - N/A   Overcast
9:53 AM 75.9 °F - 71.1 °F 85% 29.89 in 10.0 mi North 9.2 mph - N/A   Overcast
10:53 AM 72.0 °F - 66.0 °F 81% 29.88 in 10.0 mi East 12.7 mph - N/A   Overcast
11:53 AM 75.9 °F - 69.1 °F 79% 29.88 in 10.0 mi ESE 15.0 mph - N/A   Overcast
12:05 PM 77.0 °F - 70.0 °F 79% 29.89 in 10.0 mi ESE 13.8 mph - N/A   Overcast
12:53 PM 81.0 °F 86.2 °F 73.9 °F 79% 29.86 in 10.0 mi SE 9.2 mph - N/A   Mostly Cloudy
1:24 PM 82.0 °F 87.9 °F 73.9 °F 76% 29.87 in 10.0 mi SSE 10.4 mph - N/A   Mostly Cloudy
1:53 PM 84.0 °F 91.9 °F 75.0 °F 74% 29.85 in 10.0 mi SE 13.8 mph - N/A   Mostly Cloudy
2:53 PM 86.0 °F 96.0 °F 75.9 °F 72% 29.83 in 10.0 mi SE 10.4 mph - N/A   Overcast
3:53 PM 88.0 °F 96.5 °F 73.9 °F 63% 29.82 in 10.0 mi South 13.8 mph 21.9 mph N/A   Mostly Cloudy
4:53 PM 88.0 °F 95.6 °F 73.0 °F 61% 29.80 in 10.0 mi SSW 16.1 mph - N/A   Clear
5:53 PM 88.0 °F 95.6 °F 73.0 °F 61% 29.80 in 10.0 mi SSW 17.3 mph 23.0 mph N/A   Partly Cloudy
6:53 PM 87.1 °F 94.5 °F 73.0 °F 63% 29.82 in 10.0 mi SSW 12.7 mph - N/A   Clear
7:53 PM 84.9 °F 91.4 °F 73.0 °F 67% 29.83 in 10.0 mi SSW 8.1 mph - N/A   Clear
8:53 PM 81.0 °F 85.8 °F 73.0 °F 77% 29.85 in 10.0 mi South 5.8 mph - N/A   Clear
9:53 PM 81.0 °F 85.8 °F 73.0 °F 77% 29.87 in 10.0 mi ESE 4.6 mph - N/A   Overcast
10:53 PM 81.0 °F 85.8 °F 73.0 °F 77% 29.89 in 10.0 mi South 8.1 mph - N/A   Mostly Cloudy
11:53 PM 80.1 °F 83.8 °F 72.0 °F 76% 29.88 in 10.0 mi South 9.2 mph - N/A   Overcast